Location: Vinland
(47.7731°N, 122.6974°W)
Time: 12:57:15
(UTC+00:00)

Tiros 1 - Pass Details

Date: 29 March 2023
Orbit: 627 x 660 km, 48.4° (Epoch: 28 May)

Event Time Altitude Azimuth Distance (km) Brightness Sun altitude
Exits shadow 11:44:24 27° 171° (S) 1,263 8.4 -21.6°
Maximum altitude 11:45:31 30° 145° (SE) 1,176 8.5 -21.4°
Drops below altitude 10° 11:49:42 10° 85° (E) 2,078 10.7 -20.8°
Sets 11:52:16 0° 74° (ENE) 2,993 12.0 -20.4°
